Regional Weather Roundup
Issued by NWS

Home | Current Version | Previous Version | Text Only | Print | Product List | Glossary On
Versions: 1 2 3 4 5 6 7 8 9 10 11 12 13 14 15 16 17 18 19 20 21 22 23 24 25 26 27 28 29 30 31 32 33 34 35 36 37 38 39 40 41 42 43 44 45 46 47 48 49 50
000
ASUS43 KDMX 272203
RWRIA

WEATHER ROUNDUP FOR IOWA
NATIONAL WEATHER SERVICE DES MOINES IA
500 PM CDT FRI MAY 27 2016

NOTE: "FAIR" INDICATES FEW OR NO CLOUDS BELOW 12,000 FEET WITH NO
SIGNIFICANT WEATHER AND/OR OBSTRUCTIONS TO VISIBILITY.

* - THESE STATIONS ARE NOT NWS STATIONS...THUS NOT UNDER NWS
QUALITY CONTROL.  THEY ALSO DO NOT REPORT WEATHER SUCH
AS PRECIPITATION OR FOG.

IAZ001>003-012>014-020>022-031>034-043>046-272300-
   NORTHWEST IOWA

CITY           SKY/WX    TMP DP  RH WIND       PRES   REMARKS
CARROLL *      SUNNY     75  61  60 CALM      29.72F
CHEROKEE *     PTSUNNY   76  59  56 W6        29.72F
DENISON *      SUNNY     75  59  57 CALM      29.70F
LE MARS *      MOSUNNY   75  59  57 CALM      29.72F
ORANGE CITY *  PTSUNNY   75  59  57 W3        29.73F
SHELDON *      MOSUNNY   75  57  53 CALM      29.72S
SIOUX CITY     CLOUDY    78  59  51 VRB5      29.69F
SPENCER        MOSUNNY   76  55  48 SW6       29.72F
STORM LAKE *   SUNNY     75  55  50 VRB3G12   29.73F
$$

IAZ055>058-069>071-079>083-090>094-272300-
   SOUTHWEST IOWA

CITY           SKY/WX    TMP DP  RH WIND       PRES   REMARKS
ATLANTIC *     PTSUNNY   75  61  60 S6        29.74R
AUDUBON *        N/A     75  64  69 SE5       29.75R
CLARINDA *       N/A     75  66  73 MISG      29.73F
COUNCIL BLFS * MOSUNNY   75  61  60 E7        29.72S
CRESTON *      CLOUDY    73  64  73 NW8       29.76F
HARLAN  *      PTSUNNY   77  59  53 CALM      29.76S
LAMONI         MOSUNNY   76  65  68 VRB6      29.73F
RED OAK *      LGT RAIN  72  66  83 NE15      29.70F
SHENANDOAH *   CLOUDY    73  64  73 NE9G18    29.71F
$$

IAZ047>049-059>061-072>074-084-272300-
   CENTRAL IOWA

CITY           SKY/WX    TMP DP  RH WIND       PRES   REMARKS
AMES           PTSUNNY   74  63  68 VRB6      29.73F
ANKENY *       PTSUNNY   75  64  69 CALM      29.73S
BOONE *        SUNNY     73  63  68 W7        29.73F
CHARITON *     MOSUNNY   77  64  65 VRB5      29.74S
DES MOINES     CLOUDY    76  62  62 W7        29.73F
GRINNELL*      MOSUNNY   75  64  69 SW12      29.74S
KNOXVILLE *    SUNNY     77  63  61 NW8G16    29.73S
MARSHALLTOWN   PTSUNNY   76  67  73 W13       29.72F
NEWTON *       PTSUNNY   75  64  69 W9G15     29.74R
PERRY *          N/A     75  63  64 CALM      29.73F
$$

IAZ004>006-015-016-023>025-035-036-272300-
   NORTH CENTRAL IOWA

CITY           SKY/WX    TMP DP  RH WIND       PRES   REMARKS
ALGONA *       PTSUNNY   75  59  57 CALM      29.73F
CLARION *      SUNNY     73  63  68 CALM      29.73F
ESTHERVILLE    MOSUNNY   74  57  55 W8        29.73F
FORT DODGE *   MOSUNNY   73  57  56 CALM      29.74F
MASON CITY     MOSUNNY   73  63  70 N6        29.76F
FOREST CITY *  MOSUNNY   70  61  73 CALM      29.74F
WEBSTER CITY * SUNNY     73  64  73 CALM      29.72F
IOWA FALLS *   CLOUDY    75  64  69 W10       29.75F
$$

IAZ007>011-017>019-026>030-037>042-050>054-066-272300-
   NORTHEAST IOWA

CITY           SKY/WX    TMP DP  RH WIND       PRES   REMARKS
CEDAR RAPIDS   PTSUNNY   81  69  67 S12       29.71F HX  84
CHARLES CITY * PTSUNNY   72  68  88 W8        29.75F
CLINTON *      PTSUNNY   77  69  76 S14       29.77F
DECORAH *      LGT RAIN  68  68 100 E7        29.73F
DUBUQUE        PTSUNNY   73  66  78 S21       29.76F
MONTICELLO *   PTSUNNY   79  66  65 SE20G26   29.73S HX  81
OELWEIN *      MOSUNNY   73  70  88 W10       29.74S
WATERLOO       CLOUDY    75  65  70 W10       29.72S
$$

IAZ064-065-067-068-078-272300-
   EAST CENTRAL IOWA

CITY           SKY/WX    TMP DP  RH WIND       PRES   REMARKS
DAVENPORT      MOSUNNY   77  68  73 S16       29.76F
IOWA CITY      MOSUNNY   80  69  69 S17       29.73F HX  83
MT. PLEASANT * SUNNY     82  70  65 S13       29.74F HX  86
MUSCATINE *    PTSUNNY   81  68  65 S12G21    29.74F HX  83
QUAD CITIES    CLOUDY    78  68  71 S10G22    29.76F HX  80
$$

IAZ062-063-075>077-085>089-095>099-272300-
   SOUTHEAST IOWA

CITY           SKY/WX    TMP DP  RH WIND       PRES   REMARKS
BURLINGTON     MOSUNNY   78  69  73 S12       29.75F HX  80
FAIRFIELD *      N/A    N/A N/A N/A MISG        N/A
FORT MADISON * MOSUNNY   79  70  73 S10       29.76F HX  81
KEOKUK *       SUNNY     81  70  69 S12       29.74F HX  84
OSKALOOSA *      N/A     82  63  51 W7        29.72F HX  83
OTTUMWA        MOSUNNY   80  65  59 SW7       29.72F HX  82
WASHINGTON *   MOSUNNY   82  82 100 S16       29.73F HX  97
$$

ABBREVIATIONS USED IN REMARKS
   TC - TEMPERATURES IN CELSIUS
  WCI - WIND CHILL INDEX
   HX - HEAT INDEX
  VSB - VISIBILITY
$$





USA.gov is the U.S. government's official web portal to all federal, state and local government web resources and services.